JUGNU

Last updated on Sun Jun 21 2026 00:03:20 GMT+0000 (Coordinated Universal Time)

1 37839U 11058B 26171.47379505 .00000387 00000+0 62780-4 0 9996 2 37839 19.9612 288.4626 0018614 112.2842 315.8284 14.13777522759490
UTC large
Height (km)
Speed (km/s)
/
Latitude / Longitude
Inclination (degrees)
Orbital Period (minutes)
Azimuth
Elevation
Range (km)
Doppler Factor

Next 0 passes for location: London (51.5072 / 0.1276)

No passes found over London.
JUGNU